GW3154 Weather Reports


Display with metric or nautical units.
time (UTC)temp
F
wind
direction
speed
MPH
gust
MPH
rain 1hr
in
rain 24hr
in
rain mn
in
humidity
%
barometer
mb
20260905023956 57 177 1.0 1.0 0.07 0.28 0.28 95 1015.7
20260905022456 57 176 2.0 2.0 0.05 0.27 0.27 94 1015.8
20260905020953 57 170 0.0 1.0 0.00 0.26 0.26 93 1015.9
20260905015451 58 132 0.0 0.0 0.07 0.26 0.26 93 1015.7
20260905013947 59 167 1.0 1.0 0.07 0.24 0.24 91 1015.8
20260905012445 61 51 1.0 2.0 0.00 0.22 0.22 88 1015.8
20260905010945 62 172 1.0 1.0 0.00 0.22 0.22 82 1015.6
20260905005443 63 184 3.0 7.0 0.00 0.22 0.22 76 1015.6
20260905003939 64 196 5.0 8.0 0.00 0.22 0.22 75 1015.3
20260905002437 65 215 3.0 5.0 0.00 0.22 0.22 75 1015.3
20260905000932 64 185 4.0 6.0 0.00 0.22 0.22 73 1014.9
20260904235431 65 174 1.0 1.0 0.00 0.22 0.22 73 1014.9
20260904233927 65 179 1.0 2.0 0.00 0.22 0.22 73 1014.9
20260904232426 66 171 1.0 2.0 0.00 0.22 0.22 70 1014.6
20260904230924 66 220 1.0 1.0 0.00 0.22 0.22 73 1014.7
20260904225422 67 231 3.0 6.0 0.00 0.22 0.22 72 1014.6
20260904223918 65 172 0.0 1.0 0.00 0.22 0.22 78 1014.6
20260904222414 65 162 1.0 1.0 0.00 0.22 0.22 83 1014.6
20260904220910 62 175 1.0 1.0 0.00 0.22 0.22 85 1014.8
20260904215405 61 164 0.0 1.0 0.00 0.22 0.22 88 1014.5
20260904213901 60 166 2.0 3.0 0.00 0.22 0.22 88 1014.5
20260904212358 60 161 0.0 0.0 0.07 0.22 0.22 88 1014.5
20260904210855 60 180 0.0 0.0 0.05 0.20 0.20 91 1014.5
20260904205352 61 157 1.0 1.0 0.00 0.19 0.19 86 1014.5
20260904203847 64 191 3.0 5.0 0.00 0.19 0.19 73 1013.9
20260904202346 64 264 2.0 3.0 0.00 0.19 0.19 75 1014.0
20260904200842 64 179 3.0 6.0 0.00 0.19 0.19 76 1013.8
20260904195339 64 219 2.0 2.0 0.00 0.19 0.19 78 1014.0
20260904193835 62 166 0.0 1.0 0.00 0.19 0.19 82 1014.3
20260904192332 62 165 0.0 0.0 0.00 0.19 0.19 87 1014.2
20260904190828 61 159 0.0 1.0 0.00 0.19 0.19 90 1014.3
20260904185326 60 161 0.0 0.0 0.00 0.19 0.19 89 1014.4
20260904183822 59 171 1.0 1.0 0.07 0.19 0.19 89 1014.2
20260904182319 62 123 0.0 0.0 0.00 0.18 0.18 87 1014.1
20260904180815 61 52 0.0 0.0 0.00 0.18 0.18 89 1013.9
20260904175314 60 53 0.0 0.0 0.00 0.18 0.18 90 1014.0
20260904173812 60 68 0.0 0.0 0.00 0.18 0.18 91 1013.7
20260904172308 60 66 0.0 0.0 0.00 0.18 0.18 90 1013.7
20260904170807 59 68 0.0 0.0 0.00 0.18 0.18 94 1013.6
20260904165305 58 76 0.0 0.0 0.00 0.18 0.18 95 1013.6
20260904163759 58 100 0.0 0.0 0.00 0.18 0.18 96 1013.3
20260904162300 57 121 0.0 0.0 0.00 0.18 0.18 97 1013.4
20260904160757 56 172 0.0 0.0 0.00 0.18 0.18 98 1013.4
20260904155252 56 151 0.0 0.0 0.00 0.18 0.18 99 1013.3
20260904153753 56 110 0.0 0.0 0.00 0.18 0.18 99 1013.2
20260904152251 55 97 0.0 0.0 0.00 0.18 0.18 99 1013.2
20260904150747 54 109 0.0 0.0 0.00 0.18 0.18 99 1013.1
20260904145247 54 99 0.0 0.0 0.00 0.18 0.18 99 1013.0
20260904143746 54 96 0.0 0.0 0.00 0.18 0.18 99 1012.9
20260904142246 54 96 0.0 0.0 0.00 0.18 0.18 99 1012.8
20260904140742 53 91 0.0 1.0 0.00 0.17 0.17 99 1012.3
20260904135238 54 112 0.0 0.0 0.07 0.17 0.17 99 1012.4
20260904133734 54 93 0.0 0.0 0.00 0.16 0.16 99 1012.0
20260904132231 54 109 0.0 0.0 0.00 0.16 0.16 99 1011.9
20260904130726 54 134 0.0 0.0 0.00 0.16 0.16 99 1011.7
20260904125223 54 86 0.0 1.0 0.00 0.16 0.16 98 1011.7
20260904123720 54 105 0.0 0.0 0.00 0.16 0.16 98 1011.7
20260904122216 54 161 1.0 1.0 0.00 0.16 0.16 98 1011.5
20260904120715 54 167 0.0 0.0 0.00 0.16 0.16 98 1011.7
20260904115212 54 158 0.0 0.0 0.00 0.16 0.16 98 1011.4
20260904113707 54 158 0.0 0.0 0.00 0.16 0.16 98 1011.4
20260904112203 54 160 1.0 1.0 0.00 0.16 0.16 98 1011.1
20260904110701 54 169 0.0 1.0 0.00 0.16 0.16 98 1011.1
20260904105156 54 160 0.0 0.0 0.00 0.16 0.16 98 1011.2
20260904103655 54 118 0.0 0.0 0.00 0.16 0.16 98 1010.9
20260904102153 54 115 0.0 0.0 0.00 0.16 0.16 98 1010.9
20260904100653 54 70 1.0 1.0 0.07 0.15 0.15 98 1010.9
20260904095148 54 137 2.0 2.0 0.12 0.13 0.13 97 1011.1
20260904093647 54 146 1.0 3.0 0.12 0.11 0.11 98 1011.0
20260904092144 54 159 2.0 3.0 0.00 0.09 0.09 98 1010.9
20260904090641 54 170 0.0 1.0 0.07 0.09 0.09 99 1011.1
20260904085137 54 309 1.0 1.0 0.07 0.08 0.08 98 1011.1
20260904083637 54 153 0.0 0.0 0.00 0.06 0.06 99 1011.2
20260904082135 54 52 1.0 1.0 0.12 0.06 0.06 98 1011.0
20260904080632 54 154 0.0 0.0 0.05 0.03 0.03 98 1011.0
20260904075131 54 155 0.0 1.0 0.05 0.01 0.01 99 1011.2
20260904073625 54 104 0.0 0.0 0.00 0.00 0.00 99 1011.1
20260904072124 53 57 1.0 1.0 0.00 0.00 0.00 99 1011.2
20260904070619 54 104 0.0 0.0 0.00 0.00 0.00 98 1010.8
20260904065117 54 107 0.0 0.0 0.00 0.42 0.42 98 1010.9
20260904063614 54 105 0.0 0.0 0.00 0.42 0.42 97 1010.9
20260904062113 54 160 0.0 0.0 0.00 0.42 0.42 97 1010.8
20260904060613 55 160 0.0 0.0 0.00 0.42 0.42 96 1010.9
20260904055110 55 159 0.0 0.0 0.00 0.42 0.42 97 1010.9
20260904053607 55 165 1.0 1.0 0.00 0.42 0.42 97 1010.8
20260904052107 55 180 1.0 1.0 0.00 0.42 0.42 97 1011.0
20260904050604 55 168 1.0 2.0 0.07 0.42 0.42 96 1011.1
20260904045101 55 168 1.0 1.0 0.00 0.41 0.41 96 1011.1
20260904043601 55 169 1.0 2.0 0.00 0.41 0.41 96 1011.0
20260904042059 55 157 0.0 1.0 0.00 0.41 0.41 97 1010.9
20260904040557 55 173 0.0 1.0 0.00 0.41 0.41 97 1011.0
20260904035054 55 157 0.0 1.0 0.00 0.41 0.41 97 1011.0
20260904033552 55 165 0.0 1.0 0.00 0.41 0.41 97 1010.8
20260904032049 55 127 0.0 0.0 0.00 0.41 0.41 96 1010.8
20260904030546 56 187 1.0 1.0 0.00 0.40 0.40 94 1011.0
20260904025043 56 164 2.0 3.0 0.00 0.40 0.40 94 1011.0